Regional Weather Roundup
Issued by NWS

Home | Current Version | Previous Version | Text Only | Print | Product List | Glossary Off
Versions: 1 2 3 4 5 6 7 8 9 10 11 12 13 14 15 16 17 18 19 20 21 22 23 24 25 26 27 28 29 30 31 32 33 34 35 36 37 38 39 40 41 42 43 44 45 46 47 48 49 50

000
ASUS43 KOAX 160410
RWRNE

WEATHER ROUNDUP FOR NEBRASKA
NATIONAL WEATHER SERVICE OMAHA NE
1100 PM CDT SUN OCT 15 2017

NOTES: SATELLITE DATA IS BEING USED TO AUGMENT CLOUD COVER ABOVE
       12000 FEET.
       "FAIR" INDICATES FEW OR NO CLOUDS BELOW 12,000 FEET WITH NO
       SIGNIFICANT WEATHER AND/OR OBSTRUCTIONS TO VISIBILITY.


NEZ001>004-019>022-054>056-160500-
NEBRASKA PANHANDLE

CITY           SKY/WX    TMP DP  RH WIND       PRES   REMARKS
SCOTTSBLUFF    CLEAR     38  27  64 E5        30.35S WCI  34
ALLIANCE       CLEAR     35  25  66 S6        30.34F WCI  30
CHADRON        CLEAR     36  27  69 W3        30.32R
GORDON         FAIR      32  28  85 NE3       30.33R
KIMBALL        CLEAR     37  27  67 SW9       30.39S WCI  31
SIDNEY         CLEAR     30  24  78 SW6       30.39R WCI  24
$$

NEZ057>060-069>072-079>082-160500-
SOUTHWEST NEBRASKA

CITY           SKY/WX    TMP DP  RH WIND       PRES   REMARKS
NORTH PLATTE   CLEAR     39  31  72 E5        30.37R
IMPERIAL       CLEAR     40  30  67 CALM      30.38R
LEXINGTON      CLEAR     42  33  70 CALM      30.37S
MCCOOK         CLEAR     44  30  57 SW6       30.38R
OGALLALA       CLEAR     36  31  82 W3        30.38R
$$

NEZ005>010-023>029-035>040-094-160500-
NORTH CENTRAL NEBRASKA

CITY           SKY/WX    TMP DP  RH WIND       PRES   REMARKS
VALENTINE      CLEAR     34  29  82 W3        30.33S
AINSWORTH      CLEAR     40  32  72 CALM      30.33S
BROKEN BOW     CLEAR     36  32  85 W3        30.35S
O`NEILL        CLEAR     40  35  84 SW5       30.33S
ORD            CLEAR     37  31  78 CALM      30.35R
THEDFORD       CLEAR     39  30  69 CALM      30.36R
$$

NEZ041-046>049-061>064-073>077-083>087-160500-
SOUTH CENTRAL NEBRASKA

CITY           SKY/WX    TMP DP  RH WIND       PRES   REMARKS
GRAND ISLAND   CLEAR     44  39  82 CALM      30.37R
AURORA         CLEAR     41  34  77 CALM      30.36S
HASTINGS       CLEAR     43  35  73 W3        30.37R
HEBRON         CLEAR     42  38  86 CALM      30.37R
HOLDREGE       CLEAR     41  31  68 CALM      30.37S
KEARNEY        CLEAR     43  35  73 W6        30.38R
YORK           PTCLDY    41  36  81 CALM      30.36R
$$

NEZ011>018-030>034-042>045-160500-
NORTHEAST NEBRASKA

CITY           SKY/WX    TMP DP  RH WIND       PRES   REMARKS
NORFOLK        CLEAR     41  33  73 CALM      30.34R
ALBION         PTCLDY    37  33  87 CALM      30.35S
BLAIR          CLEAR     49  35  58 W6        30.33R
COLUMBUS       CLEAR     36  34  92 CALM      30.36R
FREMONT        CLEAR     43  37  80 CALM      30.34R
TEKAMAH        CLEAR     44  35  70 W7        30.32R
WAYNE          PTCLDY    37  34  91 S3        30.33R
$$

NEZ050>053-065>068-078-088>093-160500-
SOUTHEAST NEBRASKA

CITY           SKY/WX    TMP DP  RH WIND       PRES   REMARKS
LINCOLN        CLEAR     44  36  73 CALM      30.36R
OMAHA EPPLEY   CLEAR     48  37  65 CALM      30.33R
BEATRICE       CLEAR     42  37  82 CALM      30.36R
FALLS CITY     CLEAR     45  37  73 CALM      30.35R
NEBRASKA CITY  CLEAR     47  36  66 W9        30.34R
PLATTSMOUTH    CLEAR     48  36  62 SW6       30.33S
$$

NEZ044-045-051>053-067-160500-
OMAHA AREA

CITY           SKY/WX    TMP DP  RH WIND       PRES   REMARKS
OMAHA EPPLEY   CLEAR     48  37  65 CALM      30.33R
BLAIR          CLEAR     49  35  58 W6        30.33R
FREMONT        CLEAR     43  37  80 CALM      30.34R
MILLARD        CLEAR     44  40  86 CALM      30.33S
OFFUTT AFB     CLEAR     40  37  88 CALM      30.33R
PLATTSMOUTH    CLEAR     48  36  62 SW6       30.33S
WAHOO          FAIR      43  35  73 NW3       30.34S
$$




USA.gov is the U.S. government's official web portal to all federal, state and local government web resources and services.